Puerto Barrios Airport
MGPB : now visible

Airfield :











YOU CAN JOIN US ON...

 
LOGIN :

Register | Disclaimer

   EN    FR    IT 

 









Legend :    VFR   Marginal VFR   IFR   Intensive IFR   Very Intensive IFR
Visi :
Ceiling :
>= 8 km
>= 3000ft
5 to 8 km
1000 to 3000 ft
1500m to 5 km
500 to 1000 ft
800 to 1500m
200 to 500 ft
< 800m
< 200 ft
Symbols :   Thunderstorms  Fog  Heavy snow  Heavy precipitations  Wind > 20 kt






- Airport Elevation : 33 ft
- IATA code : PBR


MGPB - Puerto Barrios

CURRENT METAR :
  • 251700Z 00000KT 9999 FEW018 SCT070 26/23 Q1019 A3009

EXPIRED METARs :
  • 251600Z 00000KT 9999 FEW017 BKN070 25/23 Q1019 A3009
  • 251500Z 00000KT 9999 SCT017 BKN080 24/23 Q1019 A3009

TAF MGPB
Valid from the 25 at 12:00 until the 26 at 12:00 UTC


251100Z 2512/2612 00000KT 9999 SCT016 SCT080 TX27/2520Z TN21/2512Z
BECMG 2516/2518 06008KT SCT018
TEMPO 25230/2606 8000 RADZ BKN018 SCT090
BECMG 2600/2602 00000KT SCT016 SCT080



MET'MAP, your aeronautical weather chart ! - Copyright ORBIFLY December 2007 - Disclaimer

ORBIFLY MET'MAP TEAM :

Programming & Development : Alexandra Zaïnal
Concept & original design : Baudouin d'Aumeries
Assistance for programming : Marc-Olivier Méhu
Technical & hardware support : Manuel Goepfert

Contact : metmap@orbifly.com




SOURCES & CREDITS :

   NOAA       Earth
Advisory